Weather Roundup
Issued by NWS Chicago, IL

Home | Current Version | Previous Version | Text Only | Print | Product List | Glossary Off
Versions: 1 2 3 4 5 6 7 8 9 10 11 12 13 14 15 16 17 18 19 20 21 22 23 24 25 26 27 28 29 30 31 32 33 34 35 36 37 38 39 40 41 42 43 44 45 46 47 48 49 50

000
NZUS59 KLOT 051703
HRRLOT

CHICAGO AREA WEATHER ROUNDUP
NATIONAL WEATHER SERVICE CHICAGO/ROMEOVILLE IL
1200 PM CDT THU MAY 05 2016

NOTE: "FAIR" INDICATES FEW OR NO CLOUDS BELOW 12,000 FEET WITH NO
SIGNIFICANT WEATHER AND/OR OBSTRUCTIONS TO VISIBILITY.

* THESE STATIONS ARE NOT UNDER NWS QUALITY CONTROL. THEY ALSO MAY NOT
  REPORT WEATHER SUCH AS PRECIPITATION OR FOG.

ILZ005-006-012>014-019>023-051800-
NORTHEAST ILLINOIS

CITY           SKY/WX    TMP DP  RH WIND       PRES   REMARKS
OHARE          SUNNY     58  42  55 N12       30.01S
MIDWAY         SUNNY     56  41  57 N12       30.02R
AURORA         SUNNY     58  44  60 N12G20    30.02S
LANSING*       SUNNY     48  40  74 N13       30.02R
WAUKEGAN       SUNNY     55  40  56 N10G22    30.01F
DUPAGE AIRPORT SUNNY     57  41  55 N6        30.01S
WHEELING       SUNNY     57  42  57 N10       30.03S
$$

WIZ051-052-058>065-066-070>072-051800-
SOUTHEAST WISCONSIN

CITY           SKY/WX    TMP DP  RH WIND       PRES   REMARKS
MILWAUKEE      SUNNY     53  39  59 N12G21    30.04S
KENOSHA*       SUNNY     56  40  55 N12       30.03S
RACINE*        SUNNY     52  39  61 N13       30.05S
BURLINGTON     SUNNY     56  37  50 N6        30.02F
WAUKESHA       SUNNY     54  37  54 N6        30.03F
$$

INZ001>003-010>013-019-020-051800-
NORTHWEST INDIANA

CITY           SKY/WX    TMP DP  RH WIND       PRES   REMARKS
GARY*          PTSUNNY   48  45  87 N12G23    30.04R
MICHIGAN CITY* NOT AVBL
RENSSELAER*    NOT AVBL
VALPARAISO     SUNNY     49  41  74 N14       29.99S
$$

LMZ740>746-051800-
SOUTHERN LAKE MICHIGAN

STATION/POSITION TIME  SKY/WX   TEMP WIND        PRES    VSBY
                                AIR  DIR/SP/G
                 (UTC)          (F)  (DEG/KT/KT) (MB)    (MI)
HARRISON CRIB    1600            43  350/ 21/ 23   N/A
BURNHAM HARBOR   1700            47  340/ 12/ 18   N/A
CALUMET HARBOR   1600            45  340/ 15/ 20 1016.1R
BURNS HARBOR     1616            43  360/ 12/ 17 1016.9R
MICHIGAN CITY    1600            42  340/ 14/ 15   N/A
$$

ABBREVIATIONS USED IN REMARKS
   TC - TEMPERATURE IN CELSIUS
  WCI - WIND CHILL INDEX
   HX - HEAT INDEX
  VSB - VISIBILITY
$$




USA.gov is the U.S. government's official web portal to all federal, state and local government web resources and services.